Aberdeen, SD

5:32 AM CDT on May 27, 2018 (GMT -0500)
Aberdeen Regional

Weather History for KABR - July, 2013

Change the Weather History Date:

Monday, July 15, 2013

  Actual Average Record
Temperature  
Mean Temperature 76 °F 72 °F  
Max Temperature 84 °F 84 °F 114 °F (1931)
Min Temperature 68 °F 59 °F 41 °F (1912)
Degree Days  
Heating Degree Days 0 0  
Month to date heating degree days 0 8  
Since 1 June heating degree days 81 84  
Since 1 July heating degree days 0 8  
Cooling Degree Days 11 7  
Month to date cooling degree days 123 96  
Year to date cooling degree days 240 211  
Since 1 June cooling degree days 219 188  
Growing Degree Days 26 (Base 50)    
Moisture  
Dew Point 67 °F    
Average Humidity 78    
Maximum Humidity 100    
Minimum Humidity 55    
Precipitation  
Precipitation 0.01 in 0.10 in 1.26 in (1983)
Month to date precipitation 2.35 1.59  
Year to date precipitation 13.07 12.43  
Sea Level Pressure  
Sea Level Pressure 30.11 in    
Wind  
Wind Speed 9 mph (SE)    
Max Wind Speed 21 mph    
Max Gust Speed 25 mph    
Visibility 8 miles    
Events Rain    
T = Trace of Precipitation, MM = Missing Value Source: NWS Daily Summary

Daily Weather History Graph

Daily Weather History Graph

Search for Another Location

Airport or City:

Astronomy

Jul. 15, 2013 Rise Set
Actual Time 5:59 AM CDT 9:18 PM CDT
Civil Twilight 5:23 AM CDT 9:55 PM CDT
Nautical Twilight 4:36 AM CDT 10:42 PM CDT
Astronomical Twilight 3:36 AM CDT 11:41 PM CDT
Moon 1:45 PM CDT (7/15) 12:09 AM CDT (7/15)
Length of Visible Light 16h 31m
Length of Day
15h 18m
Waxing Crescent, 45% of the Moon is Illuminated
Jul 15
Waxing Crescent
Jul 15
First Quarter
Jul 22
Full
Jul 29
Last Quarter
Aug 6
New

Hourly Weather History & Observations

Time (CDT) Temp. Heat Index Dew Point Humidity Pressure Visibility Wind Dir Wind Speed Gust Speed Precip Events Conditions
12:13 AM 69.8 °F - 68.0 °F 94% 30.15 in 10.0 mi ENE 8.1 mph - N/A   Overcast
12:53 AM 70.0 °F - 69.1 °F 97% 30.13 in 10.0 mi NE 4.6 mph - N/A   Overcast
1:04 AM 69.8 °F - 69.8 °F 100% 30.14 in 10.0 mi NE 5.8 mph - N/A   Overcast
1:53 AM 70.0 °F - 69.1 °F 97% 30.13 in 8.0 mi ENE 4.6 mph - N/A   Overcast
2:53 AM 70.0 °F - 69.1 °F 97% 30.12 in 5.0 mi SE 5.8 mph - N/A   Overcast
3:49 AM 69.8 °F - 69.8 °F 100% 30.14 in 5.0 mi SE 5.8 mph - N/A   Scattered Clouds
3:53 AM 69.1 °F - 69.1 °F 100% 30.12 in 5.0 mi SE 5.8 mph - N/A   Partly Cloudy
4:53 AM 69.1 °F - 68.0 °F 96% 30.12 in 5.0 mi SSE 5.8 mph - N/A   Mostly Cloudy
5:53 AM 69.1 °F - 68.0 °F 96% 30.12 in 5.0 mi SSE 4.6 mph - N/A   Overcast
6:51 AM 68.0 °F - 66.2 °F 94% 30.15 in 6.0 mi Calm Calm - N/A   Overcast
6:53 AM 68.0 °F - 66.0 °F 93% 30.13 in 6.0 mi SE 3.5 mph - N/A   Overcast
7:53 AM 69.1 °F - 66.9 °F 93% 30.14 in 7.0 mi SSE 3.5 mph - N/A   Overcast
8:53 AM 69.1 °F - 66.9 °F 93% 30.14 in 7.0 mi SE 6.9 mph - 0.01 in Rain Light Rain
9:53 AM 70.0 °F - 66.9 °F 90% 30.14 in 8.0 mi SE 5.8 mph - 0.00 in   Overcast
10:53 AM 72.0 °F - 68.0 °F 87% 30.14 in 10.0 mi South 9.2 mph - N/A   Overcast
11:53 AM 73.0 °F - 68.0 °F 84% 30.13 in 9.0 mi SSE 8.1 mph - N/A   Overcast
12:53 PM 73.9 °F - 68.0 °F 82% 30.13 in 10.0 mi South 9.2 mph - N/A   Overcast
1:53 PM 75.9 °F - 69.1 °F 79% 30.12 in 10.0 mi SE 8.1 mph - N/A   Overcast
2:53 PM 80.1 °F 82.9 °F 69.1 °F 69% 30.09 in 10.0 mi South 9.2 mph - N/A   Clear
3:53 PM 84.0 °F 87.0 °F 68.0 °F 58% 30.07 in 10.0 mi South 13.8 mph - N/A   Scattered Clouds
4:53 PM 82.0 °F 83.4 °F 64.0 °F 54% 30.06 in 10.0 mi South 11.5 mph - N/A   Clear
5:53 PM 82.9 °F 85.0 °F 66.0 °F 56% 30.05 in 10.0 mi SSE 17.3 mph - N/A   Clear
6:53 PM 81.0 °F 83.0 °F 66.0 °F 60% 30.04 in 10.0 mi SSE 12.7 mph - N/A   Clear
7:53 PM 78.1 °F - 66.0 °F 66% 30.04 in 10.0 mi SSE 11.5 mph - N/A   Clear
8:53 PM 75.0 °F - 66.9 °F 76% 30.04 in 10.0 mi SSE 10.4 mph - N/A   Clear
9:53 PM 72.0 °F - 66.0 °F 81% 30.05 in 10.0 mi SSE 10.4 mph - N/A   Clear
10:53 PM 71.1 °F - 64.9 °F 81% 30.06 in 10.0 mi SSE 11.5 mph - N/A   Clear
11:53 PM 70.0 °F - 64.0 °F 81% 30.05 in 10.0 mi SSE 13.8 mph - N/A   Clear